Location: Les Jeannots
(43.2262°N, 5.5774°E)
Time: 02:43:40
(UTC+00:00)

ATLAS CENTAUR R/B - Pass Details

Date: 05 July 2020
Orbit: 475 x 672 km, 64.7° (Epoch: 13 July)

Event Time Altitude Azimuth Distance (km) Brightness Sun altitude
Rises 20:13:45 0° 339° (NNW) 2,580 6.0 -8.5°
Reaches altitude 10° 20:16:51 10° 6° (N) 1,670 4.3 -8.9°
Maximum altitude 20:18:48 14° 39° (NE) 1,441 3.5 -9.2°
Drops below altitude 10° 20:20:45 10° 71° (ENE) 1,649 3.5 -9.5°
Enters shadow 20:22:16 - 88° (E) 2,042 3.8 -9.7°
